EW7149 Weather Reports


Display with metric or nautical units.
time (UTC)temp
F
wind
direction
speed
MPH
gust
MPH
rain 1hr
in
rain 24hr
in
rain mn
in
humidity
%
barometer
mb
20260507222632 67 355 0.0 0.0 0.00 0.05 0.02 35 1007.6
20260507222136 68 355 0.0 0.0 0.00 0.05 0.02 35 1007.6
20260507221644 68 238 0.0 0.0 0.00 0.05 0.02 36 1007.5
20260507221138 68 238 0.0 0.0 0.00 0.05 0.02 35 1007.6
20260507220626 68 223 0.0 0.0 0.00 0.05 0.02 36 1007.6
20260507220118 68 222 0.0 0.0 0.00 0.05 0.02 34 1007.6
20260507215618 68 250 0.0 0.0 0.00 0.05 0.02 35 1007.6
20260507215125 68 273 0.0 0.0 0.00 0.05 0.02 36 1007.7
20260507214613 68 249 0.0 0.0 0.00 0.05 0.02 34 1007.6
20260507214114 68 244 0.0 0.0 0.00 0.05 0.02 38 1007.6
20260507213606 67 242 0.0 1.0 0.00 0.05 0.02 36 1007.8
20260507213050 67 290 0.0 0.0 0.00 0.05 0.02 37 1007.7
20260507212548 67 264 0.0 0.0 0.00 0.05 0.02 36 1007.8
20260507211028 66 240 0.0 0.0 0.00 0.05 0.02 38 1007.9
20260507210535 67 70 0.0 0.0 0.00 0.05 0.02 37 1007.9
20260507205530 67 279 0.0 1.0 0.00 0.05 0.02 38 1008.0
20260507205015 67 331 0.0 5.0 0.00 0.05 0.02 37 1008.0
20260507204501 67 167 0.0 0.0 0.00 0.05 0.02 36 1008.0
20260507203954 67 269 0.0 0.0 0.00 0.05 0.02 38 1008.0
20260507203435 67 350 0.0 0.0 0.00 0.05 0.02 37 1008.0
20260507202922 67 247 0.0 2.0 0.00 0.05 0.02 37 1008.0
20260507202426 67 258 0.0 2.0 0.00 0.05 0.02 38 1008.0
20260507201921 67 305 0.0 0.0 0.00 0.05 0.02 37 1008.0
20260507200927 66 189 0.0 1.0 0.00 0.05 0.02 40 1007.9
20260507200408 66 250 0.0 0.0 0.00 0.05 0.02 39 1007.9
20260507195903 66 355 0.0 0.0 0.00 0.05 0.02 40 1008.1
20260507195400 66 355 0.0 0.0 0.00 0.05 0.02 44 1008.2
20260507194849 66 290 0.0 3.0 0.00 0.05 0.02 39 1008.3
20260507194355 66 302 0.0 1.0 0.00 0.05 0.02 40 1008.3
20260507193900 66 235 0.0 6.0 0.00 0.05 0.02 37 1008.4
20260507192349 65 250 0.0 3.0 0.00 0.05 0.02 39 1008.5
20260507191833 65 293 0.0 2.0 0.00 0.05 0.02 40 1008.7
20260507191317 66 213 0.0 1.0 0.00 0.05 0.02 40 1008.8
20260507190801 65 228 0.0 5.0 0.00 0.05 0.02 38 1008.7
20260507190247 66 123 0.0 3.0 0.00 0.05 0.02 41 1008.7
20260507185751 65 265 0.0 1.0 0.00 0.05 0.02 41 1008.9
20260507185233 65 304 0.0 0.0 0.00 0.05 0.02 40 1009.0
20260507184733 65 250 0.0 3.0 0.00 0.05 0.02 41 1009.0
20260507184235 65 295 0.0 0.0 0.00 0.05 0.02 39 1009.0
20260507183228 64 58 0.0 1.0 0.00 0.05 0.02 43 1009.1
20260507182709 63 298 0.0 3.0 0.00 0.05 0.02 38 1009.1
20260507182157 64 130 0.0 0.0 0.00 0.05 0.02 38 1009.1
20260507181706 64 233 0.0 0.0 0.00 0.05 0.02 44 1009.1
20260507181214 64 213 0.0 3.0 0.00 0.05 0.02 42 1009.3
20260507180724 64 54 0.0 0.0 0.00 0.05 0.02 44 1009.5
20260507180206 63 288 0.0 0.0 0.00 0.05 0.02 38 1009.5
20260507175701 63 298 0.0 7.0 0.00 0.05 0.02 42 1009.7
20260507175209 63 57 0.0 4.0 0.00 0.05 0.02 40 1009.7
20260507174656 63 67 0.0 4.0 0.00 0.05 0.02 43 1009.8
20260507174136 63 312 0.0 3.0 0.00 0.05 0.02 42 1009.8
20260507173636 63 268 0.0 1.0 0.00 0.05 0.02 42 1009.9
20260507172623 62 248 0.0 3.0 0.00 0.05 0.02 44 1009.9
20260507172105 63 313 0.0 3.0 0.00 0.05 0.02 41 1009.9
20260507171600 63 288 0.0 2.0 0.00 0.05 0.02 41 1009.9
20260507170033 63 65 0.0 2.0 0.00 0.05 0.02 43 1010.1
20260507165516 63 355 0.0 0.0 0.00 0.05 0.02 43 1010.2
20260507165014 63 294 0.0 1.0 0.00 0.05 0.02 42 1010.2
20260507164511 63 0 0.0 0.0 0.00 0.05 0.02 45 1010.3
20260507164012 63 261 0.0 0.0 0.00 0.05 0.02 46 1010.5
20260507163459 62 348 0.0 0.0 0.00 0.05 0.02 45 1010.5
20260507162945 62 137 0.0 6.0 0.00 0.05 0.02 42 1010.5
20260507162446 62 214 0.0 4.0 0.00 0.05 0.02 45 1010.6
20260507161432 61 52 0.0 3.0 0.00 0.05 0.02 41 1010.8
20260507160921 61 5 0.0 6.0 0.00 0.05 0.02 47 1010.7
20260507160423 61 318 0.0 3.0 0.00 0.05 0.02 43 1010.7
20260507155910 61 86 0.0 2.0 0.00 0.05 0.02 47 1010.9
20260507154900 61 261 0.0 2.0 0.00 0.05 0.02 48 1010.9
20260507152836 60 72 1.0 6.0 0.00 0.05 0.02 50 1011.2
20260507152343 59 292 1.0 9.0 0.00 0.05 0.02 46 1011.1
20260507151827 59 297 1.0 9.0 0.00 0.05 0.02 48 1011.2
20260507151317 59 284 2.0 9.0 0.00 0.06 0.02 46 1011.3
20260507150329 59 298 2.0 8.0 0.00 0.06 0.02 48 1011.6
20260507145326 57 292 1.0 8.0 0.00 0.07 0.02 54 1011.7
20260507144829 56 304 1.0 8.0 0.00 0.08 0.02 52 1011.8
20260507144328 56 339 1.0 6.0 0.00 0.09 0.02 54 1011.8
20260507143809 55 302 0.0 3.0 0.00 0.09 0.02 57 1011.6
20260507143251 54 12 0.0 3.0 0.00 0.11 0.02 58 1011.8
20260507142749 53 267 0.0 5.0 0.00 0.11 0.02 57 1012.0
20260507142256 53 267 0.0 1.0 0.00 0.11 0.02 58 1011.8
20260507141803 53 267 0.0 1.0 0.00 0.11 0.02 59 1012.0
20260507141248 53 266 0.0 0.0 0.00 0.11 0.02 59 1012.0
20260507140740 53 266 0.0 1.0 0.00 0.11 0.02 59 1012.0
20260507140241 53 266 0.0 0.0 0.00 0.11 0.02 58 1012.2
20260507135738 53 266 0.0 6.0 0.00 0.11 0.02 58 1012.3
20260507135222 53 266 1.0 6.0 0.00 0.12 0.02 58 1012.4
20260507134728 53 270 0.0 6.0 0.00 0.13 0.02 58 1012.3
20260507134213 53 283 0.0 1.0 0.00 0.13 0.02 60 1012.4
20260507133720 52 280 1.0 6.0 0.00 0.14 0.02 60 1012.5
20260507133225 52 280 1.0 6.0 0.00 0.14 0.02 59 1012.4
20260507132711 52 295 1.0 6.0 0.00 0.15 0.02 60 1012.5
20260507131704 52 290 1.0 6.0 0.00 0.15 0.02 60 1012.4
20260507131158 52 277 0.0 6.0 0.00 0.15 0.02 59 1012.4
20260507130641 52 277 0.0 2.0 0.00 0.16 0.02 58 1012.3
20260507130140 52 279 0.0 3.0 0.00 0.16 0.02 58 1012.4
20260507125631 51 293 0.0 3.0 0.00 0.16 0.02 57 1012.3
20260507125126 51 257 0.0 3.0 0.00 0.17 0.02 56 1012.3
20260507124632 51 236 0.0 3.0 0.00 0.17 0.02 55 1012.2
20260507124115 51 275 0.0 2.0 0.00 0.18 0.02 52 1012.2
20260507123602 51 262 0.0 2.0 0.00 0.19 0.02 51 1012.2
20260507122550 51 245 0.0 1.0 0.00 0.20 0.02 48 1012.2
20260507121557 50 250 0.0 1.0 0.00 0.20 0.02 43 1012.2
20260507121059 50 250 0.0 3.0 0.00 0.21 0.02 43 1012.1
20260507120023 50 300 0.0 1.0 0.00 0.21 0.02 40 1012.1
20260507115508 50 310 0.0 0.0 0.00 0.21 0.02 34 1011.9
20260507115007 50 310 0.0 0.0 0.00 0.21 0.02 32 1012.1
20260507114454 50 311 0.0 1.0 0.00 0.21 0.02 28 1012.1
20260507113943 49 311 0.0 0.0 0.00 0.21 0.02 24 1012.0
20260507113449 49 311 0.0 2.0 0.00 0.21 0.02 19 1012.0
20260507112933 49 5 0.0 0.0 0.00 0.21 0.02 13 1012.0
20260507112417 49 5 0.0 2.0 0.00 0.21 0.02 6 1012.0
20260507111906 48 5 0.0 2.0 0.00 0.21 0.02 1 1012.0
20260507110331 48 279 0.0 0.0 0.00 0.21 0.02 1 1011.9
20260507105827 48 279 0.0 0.0 0.00 0.21 0.02 1 1011.8
20260507104753 48 292 0.0 0.0 0.00 0.21 0.02 1 1011.4
20260507104242 49 292 0.0 0.0 0.00 0.21 0.02 1 1011.4
20260507103738 49 292 0.0 0.0 0.00 0.21 0.02 1 1011.5
20260507103236 49 292 0.0 0.0 0.00 0.21 0.02 1 1011.6
20260507102743 49 292 0.0 0.0 0.00 0.21 0.02 1 1011.5
20260507101727 50 292 0.0 0.0 0.00 0.21 0.02 1 1011.3
20260507101220 50 292 0.0 0.0 0.00 0.21 0.02 1 1011.2
20260507100726 50 292 0.0 0.0 0.00 0.21 0.02 1 1011.0
20260507100223 50 292 0.0 0.0 0.00 0.21 0.02 1 1011.0
20260507095716 50 292 0.0 0.0 0.00 0.21 0.02 1 1011.0
20260507095217 51 292 0.0 0.0 0.00 0.21 0.02 1 1010.9
20260507094726 51 292 0.0 0.0 0.00 0.21 0.02 1 1010.9
20260507094235 51 292 0.0 0.0 0.00 0.21 0.02 1 1010.9
20260507093742 51 292 0.0 0.0 0.00 0.21 0.02 1 1011.0
20260507093252 51 292 0.0 0.0 0.00 0.21 0.02 1 1011.1
20260507092736 51 292 0.0 0.0 0.00 0.21 0.02 1 1010.9
20260507092234 51 292 0.0 0.0 0.00 0.21 0.02 1 1011.0
20260507091230 51 295 0.0 0.0 0.00 0.21 0.02 1 1011.0
20260507090732 51 295 0.0 2.0 0.00 0.21 0.02 1 1010.9
20260507090232 51 295 0.0 3.0 0.00 0.21 0.02 1 1010.8
20260507085723 51 275 0.0 0.0 0.00 0.21 0.02 1 1010.7
20260507085215 51 275 0.0 0.0 0.00 0.21 0.02 1 1010.7
20260507084659 51 277 0.0 0.0 0.00 0.21 0.02 1 1010.6
20260507084204 51 277 0.0 0.0 0.00 0.21 0.02 1 1010.6
20260507082705 51 255 0.0 0.0 0.00 0.21 0.02 1 1010.4
20260507082207 51 255 0.0 0.0 0.00 0.21 0.02 1 1010.2
20260507081715 51 255 0.0 0.0 0.00 0.21 0.02 1 1010.2
20260507081207 51 255 0.0 0.0 0.00 0.21 0.02 1 1010.0
20260507080655 51 255 0.0 0.0 0.00 0.21 0.02 1 1010.0
20260507080156 51 255 0.0 0.0 0.00 0.21 0.02 1 1010.0
20260507075654 51 255 0.0 0.0 0.00 0.21 0.02 1 1010.0
20260507075146 51 255 0.0 0.0 0.00 0.21 0.02 1 1010.1
20260507074627 51 255 0.0 0.0 0.00 0.21 0.02 1 1010.0
20260507073602 51 255 0.0 0.0 0.00 0.21 0.02 1 1010.0
20260507073112 51 255 0.0 2.0 0.00 0.21 0.02 1 1010.1
20260507072617 51 231 0.0 0.0 0.00 0.21 0.02 1 1010.1
20260507072111 51 231 0.0 0.0 0.00 0.21 0.02 1 1010.1
20260507071606 51 229 0.0 3.0 0.00 0.21 0.02 1 1010.2
20260507071105 51 296 0.0 0.0 0.00 0.21 0.02 1 1010.3
20260507070553 51 296 0.0 0.0 0.00 0.21 0.02 1 1010.5
20260507070100 52 299 0.0 0.0 0.00 0.21 0.02 1 1010.6
20260507065040 52 300 0.0 0.0 0.00 0.21 0.02 1 1010.4
20260507064547 52 300 0.0 0.0 0.00 0.21 0.02 1 1010.3
20260507063538 52 257 0.0 0.0 0.00 0.21 0.02 1 1010.4
20260507063033 53 257 0.0 0.0 0.00 0.21 0.02 1 1010.6
20260507062529 53 257 0.0 0.0 0.00 0.21 0.02 1 1010.4
20260507062021 53 257 0.0 1.0 0.00 0.21 0.02 1 1010.5
20260507060958 53 257 0.0 1.0 0.00 0.20 0.01 1 1010.5
20260507060454 53 257 0.0 2.0 0.00 0.20 0.01 1 1010.5
20260507055943 53 257 0.0 0.0 0.00 0.20 0.01 1 1010.3
20260507054907 53 257 0.0 0.0 0.00 0.20 0.01 1 1010.3
20260507054410 53 257 0.0 0.0 0.00 0.20 0.01 1 1010.2
20260507053915 54 257 0.0 0.0 0.00 0.20 0.01 1 1010.2
20260507052909 54 257 0.0 0.0 0.00 0.20 0.01 1 1010.2
20260507052351 54 257 0.0 0.0 0.00 0.20 0.01 1 1010.1
20260507051833 54 257 0.0 0.0 0.00 0.20 0.01 1 1010.1
20260507051339 54 257 0.0 0.0 0.00 0.20 0.01 1 1010.1
20260507050828 54 257 0.0 0.0 0.00 0.20 0.01 1 1010.3
20260507050309 54 257 0.0 3.0 0.00 0.20 0.01 1 1010.6
20260507045813 54 257 0.0 0.0 0.00 0.20 0.01 1 1010.2
20260507045300 54 254 0.0 2.0 0.00 0.20 0.01 1 1010.4
20260507044802 54 246 0.0 0.0 0.00 0.20 0.01 1 1010.6
20260507044245 54 246 0.0 2.0 0.00 0.20 0.01 1 1010.5
20260507043213 55 280 0.0 6.0 0.00 0.20 0.01 1 1010.4
20260507042700 55 9 0.0 6.0 0.00 0.20 0.01 1 1010.1
20260507042147 55 291 0.0 3.0 0.00 0.20 0.01 1 1010.0
20260507041647 55 279 0.0 1.0 0.00 0.20 0.01 1 1009.8
20260507041134 55 279 0.0 2.0 0.00 0.19 0.01 1 1009.7
20260507040618 56 281 0.0 0.0 0.00 0.19 0.01 1 1010.1
20260507040058 56 281 0.0 2.0 0.00 0.19 0.00 1 1010.0
20260507035548 56 271 0.0 2.0 0.00 0.19 0.20 1 1010.0
20260507035038 56 302 0.0 0.0 0.00 0.19 0.20 1 1010.0
20260507034547 56 303 0.0 4.0 0.00 0.19 0.20 1 1010.0
20260507034042 56 277 0.0 0.0 0.00 0.19 0.20 1 1009.7
20260507033544 57 278 0.0 1.0 0.00 0.19 0.20 1 1009.6
20260507033036 57 277 0.0 3.0 0.00 0.19 0.20 1 1009.5
20260507032542 57 252 1.0 0.0 0.00 0.19 0.20 1 1009.3
20260507031532 57 289 1.0 6.0 0.00 0.19 0.20 1 1009.4
20260507031026 58 322 0.0 6.0 0.00 0.19 0.19 1 1009.8
20260507030535 58 284 0.0 5.0 0.00 0.19 0.19 1 1009.6
20260507030027 58 267 0.0 1.0 0.00 0.19 0.19 1 1009.5
20260507025017 58 267 0.0 3.0 0.00 0.19 0.19 1 1009.2
20260507024504 58 267 0.0 3.0 0.00 0.19 0.19 1 1009.2
20260507023946 58 266 0.0 2.0 0.00 0.19 0.19 1 1009.4
20260507023443 58 266 0.0 2.0 0.00 0.19 0.19 1 1009.5
20260507022926 58 266 0.0 3.0 0.00 0.19 0.19 1 1009.5
20260507022418 58 266 0.0 3.0 0.00 0.19 0.19 1 1009.1
20260507021906 58 295 0.0 0.0 0.00 0.19 0.19 1 1009.2
20260507021402 58 295 1.0 5.0 0.00 0.19 0.19 1 1009.2
20260507020908 58 285 1.0 6.0 0.00 0.19 0.19 1 1009.1
20260507020351 58 273 1.0 6.0 0.00 0.19 0.19 1 1009.1
20260507015837 59 288 0.0 6.0 0.00 0.19 0.19 1 1009.2
20260507014838 59 308 1.0 4.0 0.00 0.19 0.19 1 1008.9
20260507014341 59 257 1.0 4.0 0.00 0.19 0.19 1 1008.9
20260507013837 59 316 0.0 7.0 0.00 0.19 0.19 1 1008.9
20260507013323 60 166 1.0 7.0 0.00 0.19 0.19 1 1009.0
20260507012826 60 319 1.0 7.0 0.00 0.18 0.18 1 1009.1
20260507012311 60 280 1.0 7.0 0.00 0.18 0.18 1 1009.4
20260507011815 61 310 1.0 6.0 0.00 0.18 0.18 1 1009.1
20260507011324 61 297 0.0 5.0 0.00 0.18 0.18 1 1009.2
20260507010808 61 273 0.0 5.0 0.00 0.18 0.18 1 1009.2
20260507010307 62 314 0.0 6.0 0.00 0.18 0.18 1 1009.2
20260507005817 62 294 0.0 4.0 0.00 0.18 0.18 1 1009.3
20260507005300 62 351 1.0 7.0 0.00 0.18 0.18 1 1009.1
20260507004757 63 325 1.0 7.0 0.00 0.18 0.18 1 1009.0
20260507004253 64 323 0.0 5.0 0.00 0.18 0.18 1 1009.1
20260507003742 65 223 0.0 5.0 0.00 0.18 0.18 1 1009.1
20260507003225 65 267 0.0 2.0 0.00 0.18 0.18 1 1008.7
20260507002708 65 248 0.0 3.0 0.00 0.18 0.18 1 1008.6
20260507002216 65 88 0.0 0.0 0.00 0.18 0.18 1 1008.6
20260507001707 65 88 0.0 1.0 0.00 0.16 0.17 1 1008.8
20260507001159 66 87 0.0 0.0 0.00 0.16 0.17 1 1008.3
20260507000207 66 87 0.0 2.0 0.00 0.16 0.17 1 1008.3
20260506235654 66 157 0.0 0.0 0.00 0.16 0.17 1 1008.2
20260506235203 67 150 0.0 0.0 0.00 0.16 0.16 1 1008.0
20260506234647 67 148 0.0 0.0 0.00 0.16 0.16 1 1007.8
20260506234157 67 148 0.0 0.0 0.00 0.16 0.16 1 1007.6
20260506233656 67 148 0.0 0.0 0.00 0.16 0.16 1 1007.6
20260506233150 67 148 0.0 0.0 0.00 0.16 0.16 1 1007.6
20260506232656 68 148 0.0 3.0 0.00 0.16 0.16 1 1007.5
20260506232206 68 148 0.0 2.0 0.00 0.16 0.16 1 1007.7
20260506231709 68 149 0.0 1.0 0.00 0.16 0.16 1 1007.5
20260506231210 68 149 0.0 0.0 0.00 0.16 0.16 1 1007.4
20260506230703 68 148 1.0 4.0 0.00 0.16 0.16 1 1007.5
20260506230159 68 148 1.0 4.0 0.00 0.16 0.16 1 1007.4
20260506225133 69 142 0.0 4.0 0.00 0.16 0.16 1 1007.5
20260506224633 69 140 0.0 4.0 0.00 0.16 0.16 1 1007.6
20260506223609 69 143 1.0 7.0 0.00 0.16 0.16 1 1007.4